Theta_e
324 324 326 327 327 328 330 331 331 330 328 329 330 330 330 331 333 335 336 337 337 337 336 336 336 336 336 336 336 336 336 336 336 336 336 334 330 324 321 319 319 318 318 318
326 322 324 325 329 329 329 332 332 330 327 327 330 330 329 329 331 334 335 336 335 335 337 336 336 336 336 335 335 336 335 334 335 336 335 334 327 322 318 314 312 311 312 312
324 324 322 326 327 325 327 326 331 331 329 327 328 331 330 328 328 329 333 335 334 335 335 336 334 332 331 329 328 327 325 326 329 330 329 324 319 317 315 310 306 305 304 304
321 321 324 326 327 327 326 324 324 330 331 335 328 333 329 328 328 327 331 334 335 335 333 331 329 327 326 321 318 318 318 319 321 324 324 322 320 316 311 307 304 302 302 301
319 319 324 326 325 325 325 323 325 327 331 331 332 335 330 329 329 328 329 334 335 335 332 330 326 322 317 314 314 313 313 313 315 318 320 318 313 309 307 304 302 300 298 298
316 314 316 322 323 325 326 328 326 328 329 331 332 333 334 331 330 328 327 332 335 334 328 323 318 315 312 311 311 309 309 308 309 310 311 309 307 305 304 303 301 299 298 297
316 317 316 318 325 326 326 328 329 329 328 335 328 333 333 329 326 327 326 331 332 327 322 318 315 312 310 308 307 307 305 304 304 304 304 304 303 302 300 299 299 298 297 296
317 321 318 321 325 327 328 327 330 336 336 331 326 333 330 324 322 319 322 323 323 321 318 316 313 310 307 306 304 302 301 300 300 299 300 300 300 298 297 297 296 296 295 293
318 319 319 318 322 324 328 328 320 323 320 330 329 327 324 322 321 317 318 319 319 317 315 312 309 307 304 302 300 300 300 298 298 298 297 297 296 298 297 296 295 294 292 291
315 321 319 321 320 320 323 320 325 325 333 337 330 328 329 324 323 318 317 318 317 314 310 308 305 304 301 299 299 298 298 297 296 295 296 295 296 296 295 294 293 292 291 289
314 316 320 319 318 321 322 323 324 324 324 330 329 326 315 320 323 319 317 316 314 312 309 307 304 302 301 300 301 301 301 300 301 302 302 301 297 294 293 292 291 289 288 287
311 313 316 317 312 314 318 323 323 332 328 322 324 325 310 313 321 318 316 314 312 310 308 307 304 303 302 304 305 304 305 307 304 301 296 293 292 292 291 289 288 287 287 286
312 316 319 320 318 316 319 320 319 318 322 324 331 323 310 315 318 316 315 313 312 310 310 307 305 304 303 305 308 304 300 298 295 293 292 292 292 291 289 288 287 286 285 285
312 315 316 323 321 318 320 320 319 321 330 321 322 316 311 313 319 316 313 312 311 311 311 309 307 305 304 302 299 297 294 293 293 292 291 290 290 288 288 287 285 284 284 284
311 316 316 314 314 316 320 319 319 321 322 328 324 317 313 312 319 316 313 312 313 314 313 311 310 307 303 301 298 296 293 293 292 290 290 290 289 288 286 285 284 284 283 283
311 316 316 315 314 316 318 320 319 319 319 320 316 317 310 310 311 318 315 314 317 314 313 311 309 305 302 299 297 295 293 292 291 289 289 289 288 286 285 284 283 283 283 283
312 313 316 318 313 315 318 317 319 319 318 320 320 312 310 309 310 316 317 316 316 316 315 312 306 301 299 297 295 294 293 291 290 289 288 288 286 285 284 283 283 282 282 282
313 313 314 315 315 320 310 308 317 319 318 317 311 310 310 310 308 309 311 314 316 315 314 311 306 302 297 296 295 293 292 291 289 288 288 287 285 284 283 282 282 282 282 281
311 312 313 318 320 315 306 307 315 317 320 315 317 310 308 306 306 305 305 307 308 308 308 306 304 300 296 295 293 293 291 289 289 288 287 286 284 283 282 282 282 281 281 280
309 308 314 313 321 321 307 303 308 315 320 313 313 310 308 307 312 309 302 301 301 301 302 301 299 298 295 293 293 292 290 290 289 288 287 286 284 283 282 282 281 280 280 279
310 309 316 319 321 317 300 304 306 321 315 302 309 310 308 309 305 302 298 297 296 296 295 296 296 295 294 293 293 292 291 289 289 288 287 285 284 283 282 281 280 279 279 278
314 313 314 309 317 317 299 303 315 304 302 301 306 307 304 301 300 300 298 296 295 293 292 293 293 292 293 293 292 291 290 290 288 287 286 285 284 282 281 280 279 278 278 278
309 302 310 307 307 296 297 299 299 299 301 301 303 303 302 301 300 299 298 296 294 293 292 292 292 291 291 291 291 290 290 289 288 287 286 285 283 281 279 279 278 277 277 277
298 298 300 302 297 297 298 298 298 298 299 299 299 299 300 300 299 298 297 296 295 293 292 291 291 290 290 290 289 289 289 289 288 287 285 283 281 280 279 278 277 277 277 277
298 298 299 298 297 298 298 298 298 296 296 296 295 296 298 299 298 298 295 294 293 293 292 292 292 291 291 291 290 290 289 288 287 285 283 281 280 279 278 277 277 277 277 277
297 298 300 300 298 296 298 298 296 296 296 296 296 295 294 295 295 294 294 294 293 293 293 292 291 291 291 291 290 290 289 287 286 284 282 281 279 278 277 277 276 276 275 275
Wind_Speed
11 8 12 17 14 7 8 13 16 22 10 16 16 15 11 7 7 8 11 13 14 16 20 20 18 16 15 13 13 13 13 13 12 10 11 10 7 6 7 8 8 8 8 9
5 12 13 8 6 4 3 15 10 7 2 9 16 15 14 10 10 14 12 13 15 16 17 18 18 16 14 12 12 11 11 11 11 10 9 9 11 8 9 9 10 10 9 10
12 2 15 10 8 9 4 2 13 4 4 11 5 15 15 15 11 9 12 13 14 17 16 15 16 15 13 11 10 10 9 8 8 9 10 13 12 11 10 9 10 12 11 12
6 7 9 10 12 9 6 8 6 11 7 6 8 9 18 18 16 13 12 12 14 16 15 14 15 14 13 11 9 9 9 9 9 9 11 12 11 11 10 10 10 11 12 12
3 2 7 10 12 14 6 16 11 7 10 5 8 5 12 17 18 16 14 14 15 15 15 15 14 14 12 11 11 10 10 11 10 9 10 10 13 13 12 11 12 12 12 12
2 2 1 3 7 13 2 9 7 2 1 3 7 11 14 13 17 17 15 14 16 15 13 13 14 15 13 11 12 12 13 14 14 15 14 15 16 14 13 11 10 9 10 10
1 2 1 3 7 5 11 10 3 3 3 1 4 9 8 3 2 11 14 15 13 14 14 13 13 15 14 14 13 13 14 16 16 18 21 19 18 17 14 12 10 7 11 8
5 5 5 1 6 4 14 8 4 2 4 4 1 5 6 4 6 2 7 12 13 14 13 13 16 17 16 16 15 16 15 17 18 18 19 20 18 16 15 15 11 7 6 7
5 5 2 3 5 6 4 5 3 5 3 2 4 3 11 6 5 7 11 13 14 13 13 14 17 18 18 18 17 20 20 19 17 19 18 17 17 16 13 11 8 5 5 6
3 2 2 2 3 1 4 10 4 1 5 4 6 3 6 9 12 11 11 14 15 14 15 13 17 18 17 20 21 20 19 19 13 12 17 15 14 13 8 9 7 5 5 4
6 1 3 2 4 0 5 4 2 2 2 2 4 3 4 4 13 14 13 13 15 16 16 15 18 17 18 20 21 20 17 13 10 7 8 6 7 7 6 6 6 5 4 5
6 2 3 2 3 5 4 5 7 3 4 1 3 2 3 2 10 13 14 14 15 16 16 14 17 17 21 20 17 16 13 9 8 9 10 10 8 6 4 4 5 4 4 4
8 5 2 3 2 2 2 3 3 4 2 4 3 2 2 4 10 12 16 17 15 15 14 11 14 15 18 23 21 17 16 15 13 13 12 10 8 6 5 4 4 4 4 4
5 1 5 3 3 1 4 5 6 2 2 5 3 2 6 8 11 13 14 14 15 14 15 12 11 12 11 11 12 12 11 13 14 12 10 9 8 6 4 4 4 4 4 3
8 5 4 2 3 2 2 10 10 9 3 4 4 3 3 9 11 14 14 15 15 14 14 14 13 15 16 15 15 14 13 14 13 11 10 9 8 6 5 5 5 5 4 3
15 2 5 2 6 5 1 5 5 2 2 3 1 2 5 6 9 13 16 18 18 16 16 14 13 15 17 18 19 18 16 16 15 13 12 10 8 7 7 6 5 5 3 2
9 4 4 2 3 4 3 8 9 5 6 1 2 5 6 6 11 14 16 17 16 16 15 14 14 17 18 20 19 20 19 17 16 14 12 10 9 9 9 8 7 5 4 2
8 6 1 3 3 3 1 1 11 12 6 9 1 1 3 5 4 3 8 12 13 12 12 12 17 19 19 21 22 20 20 19 16 14 12 12 11 11 10 8 7 5 5 4
6 3 3 5 4 4 3 5 6 6 9 12 10 4 6 7 7 2 1 0 4 6 9 14 17 18 20 24 23 21 19 18 16 16 15 13 12 11 10 9 7 7 6 5
5 3 3 3 4 5 3 3 1 7 4 1 10 9 9 8 4 3 5 3 5 7 11 15 18 20 20 20 23 22 20 20 20 18 15 14 13 12 11 10 8 8 7 7
5 2 4 5 2 1 2 4 5 6 1 8 5 8 10 3 2 6 6 4 4 4 7 11 14 17 19 23 23 23 22 23 19 16 15 14 13 11 11 11 10 9 9 8
4 6 3 2 3 3 1 1 5 3 1 2 1 3 7 8 7 6 6 5 6 7 8 9 12 13 16 19 22 22 21 17 15 15 15 14 13 13 13 12 12 10 9 8
3 2 2 1 2 1 1 3 3 2 2 1 2 4 7 7 4 5 6 6 6 7 7 8 9 12 14 16 19 18 17 15 16 16 17 16 15 14 14 13 13 10 10 11
1 2 2 1 3 2 2 1 2 3 4 4 6 6 6 8 6 5 4 4 3 4 4 5 6 8 11 13 16 17 16 16 17 18 19 18 17 16 16 14 14 12 12 12
2 1 3 3 2 1 1 2 4 6 7 7 7 6 7 8 5 3 3 2 1 3 6 6 9 12 16 16 18 19 19 19 20 20 19 19 17 17 15 17 16 15 16 15
1 3 2 2 4 2 4 5 2 4 4 5 6 5 6 7 5 2 1 1 4 6 7 9 14 17 21 21 22 22 22 22 21 21 21 21 19 17 17 16 16 17 15 14
Wind_Direction
191 203 240 201 210 217 179 179 196 213 165 190 205 211 221 158 148 224 205 179 182 183 183 169 174 173 172 179 177 175 173 178 177 176 174 168 149 119 95 84 71 58 55 47
204 232 218 229 159 110 45 186 200 216 32 232 206 214 224 188 194 195 212 186 180 175 171 166 177 174 176 174 176 178 173 178 184 184 183 164 145 127 111 94 76 63 59 64
245 122 217 215 207 195 230 346 208 181 141 273 211 227 228 229 217 198 210 187 182 176 176 176 168 168 160 159 155 157 155 158 167 163 148 135 128 119 109 86 74 62 59 57
281 237 196 189 181 207 197 197 265 216 185 203 204 229 207 213 209 208 197 197 184 171 176 169 168 158 148 133 130 133 133 134 137 147 153 151 145 127 109 103 93 80 75 66
76 336 229 228 202 184 223 177 175 241 189 163 199 252 242 191 208 202 199 191 185 176 173 161 162 144 134 130 124 121 116 108 115 128 139 131 115 117 113 105 96 80 67 66
230 172 222 293 236 190 147 136 77 131 140 216 181 197 219 195 214 204 195 181 180 162 155 149 138 134 125 118 112 110 108 98 99 104 108 115 119 118 114 107 98 91 82 54
294 202 232 260 207 251 197 146 117 194 179 212 197 196 262 31 168 223 177 172 154 153 150 147 142 133 124 112 105 101 100 94 95 105 112 112 107 103 94 85 78 67 69 46
209 230 157 263 232 161 189 189 164 205 173 125 41 215 223 324 60 333 223 163 150 154 151 151 137 127 120 110 103 100 93 94 100 100 107 111 111 108 108 98 85 69 59 54
189 251 144 203 324 166 164 200 42 107 12 140 188 259 275 202 181 141 143 150 155 145 140 132 130 126 117 109 102 107 105 97 98 106 107 107 112 103 98 96 95 77 59 49
124 291 54 80 323 145 220 143 96 65 179 213 160 236 242 196 190 167 162 162 149 139 130 130 124 121 114 113 110 109 105 104 103 106 107 101 89 99 108 119 115 93 69 65
146 64 22 187 212 11 141 161 190 182 262 283 152 195 37 236 184 175 165 155 150 148 143 138 131 124 120 120 118 115 106 96 99 71 75 90 129 138 128 110 87 83 84 76
212 269 257 288 275 286 289 175 176 193 192 58 341 111 51 308 153 163 152 152 152 147 139 136 138 139 137 135 133 133 129 142 176 176 159 158 152 133 107 89 103 100 99 97
169 210 277 186 141 251 176 247 130 120 54 195 164 117 102 149 147 158 154 153 150 149 148 148 153 162 158 149 151 159 167 174 177 180 170 160 152 151 149 136 120 119 114 97
235 237 216 340 15 69 172 193 224 168 157 165 232 148 174 161 160 156 156 157 159 165 166 163 153 150 145 141 146 156 166 179 181 178 173 165 163 165 148 147 149 142 128 119
237 221 172 62 295 316 207 172 184 193 205 205 155 165 136 166 177 172 169 168 157 165 169 177 173 171 170 164 161 166 173 183 184 186 179 179 174 167 168 175 172 157 154 140
215 291 173 89 317 323 13 208 154 214 273 285 339 161 107 116 158 168 169 173 180 184 187 184 183 180 178 170 173 173 178 186 189 190 189 183 177 180 187 189 184 178 166 160
193 198 166 139 327 296 282 202 184 170 211 273 288 43 147 152 172 184 181 188 195 197 193 187 185 182 175 174 172 176 182 189 192 195 192 189 193 196 200 198 196 192 195 210
170 161 49 107 198 234 130 206 192 196 209 217 205 285 177 142 120 131 195 198 204 199 191 183 182 181 176 173 181 180 188 190 194 197 201 202 202 206 207 206 208 210 218 227
224 151 126 167 204 306 178 177 177 170 246 210 220 138 116 129 137 107 126 240 189 177 175 180 180 174 170 179 178 184 183 191 198 206 209 210 209 212 213 217 224 229 230 238
169 349 292 189 149 208 62 127 172 166 277 346 178 167 156 179 171 125 140 111 99 108 146 157 166 171 172 177 185 184 189 196 207 213 214 215 216 218 219 225 229 241 241 238
155 151 215 199 131 351 99 173 151 163 13 338 300 170 159 193 24 117 120 93 104 124 148 163 173 174 181 186 188 191 199 209 215 216 219 220 223 227 231 230 227 229 238 247
152 168 170 123 111 217 147 262 189 36 47 333 8 88 109 112 117 121 116 111 109 108 123 147 162 177 187 191 193 200 208 214 219 222 225 228 231 232 231 231 234 229 234 249
138 349 105 353 79 35 354 2 354 309 18 44 127 135 130 123 115 106 105 107 111 126 141 157 168 173 184 195 203 209 217 223 227 228 232 234 235 232 232 232 233 230 233 232
49 334 80 161 20 89 30 20 320 353 51 68 73 84 66 89 85 95 97 99 119 150 157 181 173 185 204 212 217 224 230 233 234 236 235 235 235 234 234 234 232 227 231 231
16 279 129 98 67 161 206 17 32 50 63 69 54 51 76 100 92 101 129 145 201 222 226 228 227 233 238 235 236 237 240 242 239 237 237 236 238 238 238 236 236 233 233 232
359 32 345 94 79 16 58 94 95 109 88 70 80 68 56 65 84 73 52 271 247 249 253 247 247 249 252 248 246 248 247 244 242 241 241 239 237 239 235 237 242 239 234 238